Terug naar catalogus

STARLINK-11681

ActiefCommunicatieVLEO
NORAD 63755·PAYLOAD·🇺🇸 United States

Gelanceerd Apr 29, 2025 vanaf Cape Canaveral Space Force Station

Loading…

Volgende Passages (komende 24 uur)

TLE

VersSource: CelesTrak SupGP

Epoch: Sep 15, 2026, 02:22 UTC

1 63755C 25089E   26258.09909722 -.00037834  00000+0 -29374-3 0  2583
2 63755  43.0006 230.7850 0001548 263.9856  38.2251 15.70866512    16

Volg STARLINK-11681 in realtime met AllMySat

Download on the App Store